Notices

What's New in latest Release from April 7th, 2021:

- Updated Glossary, including Speed of Maximum Gust, and Total Hourly Precipitation

- Updated national and regional climate services offices contacts and prices information

- Addition of station inventory lists for 1981-2010, 1971-2000, and 1961-1990 Normals.

If you haven't already, please take our survey and provide feedback about our website: https://eccc.sondage-survey.ca/f/LanguageSelection.aspx?s=442ca660-fcf1-47c0-95a9-59707d6fd709

Hourly Data Report for February 26, 2021

MIRAMICHI RCS
NEW BRUNSWICK
Current Station Operator: ECCC - MSC

47°00'34.000" N
65°27'54.000" W
33.00 m
8100989
71744
ACQ

Download Data

Hourly Data (February 2021)
Hourly Data Report for February 26, 2021
TIME
LST
Temp Definition
°C
Dew Point Definition
°C
Rel Hum Definition
%
Precip. Amount Definition
mm

Wind Dir Definition
10's deg

Wind Spd Definition
km/h
Visibility Definition
km
Stn Press Definition
kPa
Hmdx Definition


Wind Chill Definition


Weather Definition


00:00 -11.0 -17.5 58 LegendMM 29 21   100.73   -19 LegendNANA
01:00 -11.4 -18.7 54 LegendMM 29 20   100.81   -20 LegendNANA
02:00 -12.7 -19.0 59 LegendMM 28 12   100.90   -19 LegendNANA
03:00 -13.1 -20.0 56 LegendMM 29 18   100.98   -21 LegendNANA
04:00 -14.8 -19.9 65 LegendMM 25 8   101.07   -20 LegendNANA
05:00 -15.2 -20.3 65 LegendMM 27 14   101.16   -23 LegendNANA
06:00 -16.1 -21.0 66 LegendMM 26 9   101.29   -22 LegendNANA
07:00 -16.6 -21.4 66 LegendMM 25 14   101.37   -25 LegendNANA
08:00 -16.2 -21.5 64 LegendMM 26 12   101.52   -23 LegendNANA
09:00 -14.3 -21.1 56 LegendMM 26 16   101.60   -22 LegendNANA
10:00 -12.5 -21.0 49 LegendMM 29 21   101.70   -21 LegendNANA
11:00 -11.0 -21.5 42 LegendMM 29 21   101.74   -19 LegendNANA
12:00 -9.6 -20.5 41 LegendMM 29 20   101.79   -17 LegendNANA
13:00 -8.6 -20.4 38 LegendMM 29 25   101.85   -17 LegendNANA
14:00 -7.4 -20.3 35 LegendMM 30 25   101.88   -15 LegendNANA
15:00 -6.6 -18.8 37 LegendMM 29 17   101.96   -13 LegendNANA
16:00 -6.6 -19.3 36 LegendMM 29 21   102.00   -14 LegendNANA
17:00 -6.4 -20.1 33 LegendMM 30 19   102.13   -13 LegendNANA
18:00 -7.1 -19.7 36 LegendMM 29 19   102.31   -14 LegendNANA
19:00 -8.3 -19.5 40 LegendMM 27 8   102.41   -12 LegendNANA
20:00 -9.2 -19.3 44 LegendMM 26 14   102.51   -16 LegendNANA
21:00 -10.9 -19.6 48 LegendMM 26 10   102.55   -16 LegendNANA
22:00 -12.4 -20.5 51 LegendMM 24 9   102.56   -18 LegendNANA
23:00 -16.2 -20.6 69 LegendMM 18 4   102.56   -19 LegendNANA

Notes on Data Quality.

Legend

  • E = Estimated
  • M = Missing
  • NA = Not Available*
  • [empty] = Indicates an unobserved value
Date modified: